MST,Max TemperatureF,Mean TemperatureF,Min TemperatureF,Max Dew PointF,MeanDew PointF,Min DewpointF,Max Humidity, Mean Humidity, Min Humidity, Max Sea Level PressureIn, Mean Sea Level PressureIn, Min Sea Level PressureIn, Max VisibilityMiles, Mean VisibilityMiles, Min VisibilityMiles, Max Wind SpeedMPH, Mean Wind SpeedMPH, Max Gust SpeedMPH,PrecipitationIn, CloudCover, Events, WindDirDegrees
2014-3-1,69,61,53,52,45,33,89,58,26,29.97,29.86,29.77,10,9,2,41,15,55,0.45,5,Rain-Thunderstorm,192
2014-3-2,65,56,47,46,43,38,93,65,37,30.12,30.05,29.97,10,10,7,26,6,37,0.13,3,Rain,279
2014-3-3,72,61,50,46,43,36,83,55,27,30.06,29.97,29.88,10,10,10,15,4,25,0.00,0,,287
2014-3-4,73,62,51,46,43,39,83,56,29,29.94,29.90,29.81,10,10,10,17,6,22,0.00,0,,284
2014-3-5,78,63,48,44,38,30,80,49,17,30.02,29.97,29.93,10,10,10,12,5,17,0.00,0,,166
2014-3-6,83,68,52,42,34,22,66,38,10,30.01,29.92,29.84,10,10,10,21,7,25,0.00,0,,167
2014-3-7,79,65,50,40,35,25,59,36,13,29.87,29.83,29.75,10,10,10,23,7,29,0.00,0,,281
2014-3-8,76,63,50,41,32,19,63,38,13,30.08,29.96,29.86,10,10,10,25,9,36,0.00,0,,72
2014-3-9,73,64,54,38,25,13,47,29,10,30.19,30.09,29.99,10,10,10,31,14,39,0.00,0,,101
2014-3-10,78,65,52,34,30,28,41,29,16,30.07,29.99,29.90,10,10,10,15,7,19,0.00,0,,171
2014-3-11,78,64,50,37,30,19,54,33,11,29.97,29.91,29.85,10,10,10,15,5,25,0.00,0,,241
2014-3-12,81,65,49,34,27,22,52,32,11,30.00,29.93,29.87,10,10,6,22,8,32,0.00,1,,112
2014-3-13,82,71,60,27,24,22,25,19,12,29.99,29.83,29.74,10,10,7,21,11,28,0.00,1,,155
2014-3-14,72,61,49,32,29,25,46,32,17,30.02,29.93,29.84,10,10,10,23,6,34,0.00,2,,174
2014-3-15,76,62,47,32,19,-7,50,28,5,30.08,30.02,29.97,10,10,10,26,12,36,0.00,0,,322
2014-3-16,75,63,50,14,4,-3,17,11,5,30.23,30.14,30.07,10,10,10,23,5,29,0.00,0,,313
2014-3-17,84,66,48,15,10,3,26,16,5,30.08,29.83,29.63,10,10,10,23,8,32,0.00,0,,189
2014-3-18,79,65,50,16,10,2,24,15,5,29.87,29.75,29.64,10,10,10,16,7,22,0.00,0,,246
2014-3-19,81,64,47,18,12,5,26,16,6,30.01,29.96,29.88,10,10,9,12,5,19,0.00,0,,132
2014-3-20,84,66,48,20,16,12,31,19,7,30.03,29.92,29.82,10,10,10,15,6,20,0.00,0,,194
2014-3-21,81,66,51,26,17,9,35,22,8,29.90,29.85,29.79,10,10,10,18,7,25,0.00,0,,189
2014-3-22,82,65,48,21,17,14,31,20,9,29.96,29.89,29.83,10,10,10,16,6,27,0.00,0,,236
2014-3-23,82,67,51,27,22,15,38,24,9,30.03,29.96,29.89,10,10,10,15,7,20,0.00,0,,213
2014-3-24,83,68,52,29,22,8,35,21,6,30.02,29.94,29.87,10,10,10,12,6,19,0.00,0,,177
2014-3-25,83,67,51,30,24,15,35,22,9,29.90,29.81,29.71,10,10,10,21,8,29,0.00,0,Thunderstorm,167
2014-3-26,83,69,54,32,25,12,35,22,9,29.82,29.76,29.69,10,10,10,32,14,40,0.00,0,,189
2014-3-27,74,63,52,39,32,20,54,34,14,29.95,29.88,29.82,10,10,2,23,6,29,0.00,0,,289
2014-3-28,75,61,46,30,26,21,46,30,14,30.09,30.03,29.96,10,10,10,14,5,17,0.00,0,,225
2014-3-29,86,67,47,27,20,8,42,24,6,30.10,29.98,29.86,10,10,10,13,5,16,0.00,0,,147
2014-3-30,82,69,56,23,21,17,24,17,9,29.89,29.85,29.79,10,10,10,21,9,29,0.00,0,,245
2014-3-31,83,66,48,24,16,6,35,20,5,29.96,29.89,29.82,10,10,10,20,7,26,0.00,0,,186